EW6030 Weather Reports


Display with metric or nautical units.
time (UTC)temp
F
wind
direction
speed
MPH
gust
MPH
rain 1hr
in
rain 24hr
in
rain mn
in
humidity
%
barometer
mb
20260506164509 52 137 1.0 0.0 0.00 0.00 0.00 46 1011.3
20260506163008 52 88 1.0 0.0 0.00 0.00 0.00 44 1011.3
20260506161512 51 105 2.0 0.0 0.00 0.00 0.00 46 1011.4
20260506160009 52 93 2.0 0.0 0.00 0.00 0.00 44 1011.3
20260506154506 52 52 1.0 0.0 0.00 0.00 0.00 45 1011.2
20260506153003 52 89 1.0 0.0 0.00 0.00 0.00 47 1011.1
20260506151503 51 65 0.0 0.0 0.00 0.00 0.00 48 1011.4
20260506150002 51 197 1.0 0.0 0.00 0.00 0.00 49 1011.4
20260506144602 50 119 1.0 0.0 0.00 0.00 0.00 50 1011.3
20260506143055 49 102 1.0 0.0 0.00 0.00 0.00 53 1011.5
20260506141551 48 114 1.0 0.0 0.00 0.00 0.00 55 1011.2
20260506140050 47 76 0.0 0.0 0.00 0.00 0.00 56 1011.2
20260506134547 47 219 0.0 0.0 0.00 0.00 0.00 58 1011.0
20260506133047 45 120 0.0 0.0 0.00 0.00 0.00 62 1010.8
20260506131551 42 95 0.0 0.0 0.00 0.00 0.00 66 1011.0
20260506130042 41 97 0.0 0.0 0.00 0.00 0.00 67 1010.9
20260506124539 40 63 0.0 0.0 0.00 0.00 0.00 70 1010.7
20260506123038 39 193 0.0 0.0 0.00 0.00 0.00 71 1010.5
20260506121535 38 195 0.0 0.0 0.00 0.00 0.00 74 1010.0
20260506120038 37 196 0.0 0.0 0.00 0.00 0.00 75 1009.6
20260506114532 36 196 0.0 0.0 0.00 0.00 0.00 75 1009.7
20260506113039 35 196 0.0 0.0 0.00 0.00 0.00 76 1009.5
20260506111532 35 196 0.0 0.0 0.00 0.00 0.00 76 1009.7
20260506110030 35 196 0.0 0.0 0.00 0.00 0.00 76 1009.6
20260506104533 35 196 0.0 0.0 0.00 0.00 0.00 75 1009.4
20260506103027 35 196 0.0 0.0 0.00 0.00 0.00 75 1009.3
20260506101527 35 196 0.0 0.0 0.00 0.00 0.00 75 1009.2
20260506100026 35 196 0.0 0.0 0.00 0.00 0.00 75 1009.2
20260506094526 35 196 0.0 0.0 0.00 0.00 0.00 75 1009.3
20260506093024 36 196 0.0 0.0 0.00 0.00 0.00 76 1009.0
20260506091524 36 196 0.0 0.0 0.00 0.00 0.00 75 1009.1
20260506090024 36 196 0.0 0.0 0.00 0.00 0.00 74 1009.3
20260506084518 36 196 0.0 0.0 0.00 0.00 0.00 74 1009.2
20260506083017 37 196 0.0 0.0 0.00 0.00 0.00 73 1009.0
20260506081516 37 196 0.0 0.0 0.00 0.00 0.00 72 1008.8
20260506073010 38 196 0.0 0.0 0.00 0.00 0.00 69 1008.6
20260506071508 38 196 0.0 0.0 0.00 0.00 0.00 69 1008.5
20260506061502 40 196 0.0 0.0 0.00 0.00 0.00 63 1008.8
20260506050106 42 196 0.0 0.0 0.00 0.00 0.00 58 1008.6
20260506044553 42 196 0.0 0.0 0.00 0.00 0.00 56 1008.6
20260506043047 43 196 0.0 0.0 0.00 0.00 0.00 54 1008.6
20260506041545 44 196 0.0 0.0 0.00 0.00 0.00 53 1008.6
20260506040041 45 196 0.0 0.0 0.00 0.00 0.00 52 1008.4
20260506034557 46 196 0.0 0.0 0.00 0.00 0.00 49 1008.1
20260506033038 47 196 0.0 0.0 0.00 0.00 0.00 48 1008.1
20260506031539 47 196 0.0 0.0 0.00 0.00 0.00 45 1008.1
20260506030041 48 196 0.0 0.0 0.00 0.00 0.00 44 1008.1
20260506024555 48 197 0.0 0.0 0.00 0.00 0.00 43 1008.0
20260506023033 48 201 0.0 0.0 0.00 0.00 0.00 43 1007.7
20260506021532 49 122 0.0 0.0 0.00 0.00 0.00 43 1007.5
20260506020030 49 122 0.0 0.0 0.00 0.00 0.00 43 1007.2
20260506014531 49 122 0.0 0.0 0.00 0.00 0.00 42 1007.1
20260506013039 50 174 0.0 0.0 0.00 0.00 0.00 42 1006.8
20260506011526 51 186 0.0 0.0 0.00 0.00 0.00 41 1006.5
20260506010029 51 176 0.0 0.0 0.00 0.00 0.00 41 1006.3
20260506004522 52 127 0.0 0.0 0.00 0.00 0.00 39 1006.1
20260506003023 53 113 0.0 0.0 0.00 0.00 0.00 38 1006.1
20260506001522 53 156 1.0 0.0 0.00 0.00 0.00 37 1006.1
20260506000022 54 110 1.0 0.0 0.00 0.00 0.00 37 1005.8
20260505234525 54 120 1.0 0.0 0.00 0.00 0.00 36 1005.8
20260505233021 55 93 1.0 0.0 0.00 0.00 0.00 35 1005.8
20260505231520 56 124 1.0 0.0 0.00 0.00 0.00 34 1005.9
20260505230035 56 78 1.0 0.0 0.00 0.00 0.00 34 1005.8
20260505224518 57 85 1.0 0.0 0.00 0.00 0.00 34 1005.7
20260505223017 57 123 2.0 0.0 0.00 0.00 0.00 33 1005.4
20260505221519 58 109 2.0 0.0 0.00 0.00 0.00 33 1005.4
20260505220018 59 23 2.0 0.0 0.00 0.00 0.00 30 1005.2
20260505214519 61 93 2.0 0.0 0.00 0.00 0.00 30 1005.1
20260505213016 62 98 2.0 0.0 0.00 0.00 0.00 30 1005.2
20260505211516 62 45 2.0 0.0 0.00 0.00 0.00 29 1005.2
20260505210013 61 151 3.0 0.0 0.00 0.00 0.00 28 1005.1
20260505204510 60 120 1.0 0.0 0.00 0.00 0.00 32 1005.1
20260505203011 61 128 2.0 0.0 0.00 0.00 0.00 30 1005.2
20260505201510 59 161 3.0 0.0 0.00 0.00 0.00 32 1005.4
20260505200025 59 85 2.0 0.0 0.00 0.00 0.00 29 1005.7
20260505194508 59 93 3.0 0.0 0.00 0.00 0.00 31 1005.7
20260505193009 59 64 3.0 0.0 0.00 0.00 0.00 30 1005.6
20260505191505 56 156 3.0 0.0 0.00 0.00 0.00 34 1005.7
20260505190006 57 79 2.0 0.0 0.00 0.00 0.00 33 1005.8
20260505184503 58 58 2.0 0.0 0.00 0.00 0.00 32 1005.7
20260505183002 58 161 2.0 0.0 0.00 0.00 0.00 33 1005.4
20260505181600 56 149 3.0 0.0 0.00 0.00 0.00 34 1005.3
20260505180104 57 77 2.0 0.0 0.00 0.00 0.00 34 1005.2
20260505174559 56 111 2.0 0.0 0.00 0.00 0.00 34 1005.3
20260505173056 56 77 2.0 0.0 0.00 0.00 0.00 36 1005.1
20260505171556 56 65 2.0 0.0 0.00 0.00 0.00 34 1005.5
20260505170056 55 156 1.0 0.0 0.00 0.00 0.00 37 1005.4